This demonstration page uses our WeatherBlox Daily Observations layout. Learn more.

Left ArrowRight Arrow

34.74481, -87.66753

Hourly Observations for March 4, 2021

Temp ( °F °C ) Dew Point ( °F °C ) Humidity (%) Winds ( mph kmh ) Pressure ( in mb ) Visibility ( mi km ) Precip ( " mm )
12:53 am 00:53 Clear 43 6.1 34 1.1 71 71 SW 3 6 30.14 1021 10 16 0.00 0.00
1:53 am 01:53 Clear 40 4.4 34 1.1 79 79 Calm 30.13 1020 10 16 0.00 0.00
2:53 am 02:53 Clear 40 4.4 33 0.6 77 77 Calm 30.12 1020 10 16 0.00 0.00
3:53 am 03:53 Clear 39 3.9 32 0 76 76 Calm 30.13 1020 10 16 0.00 0.00
4:53 am 04:53 Clear 39 3.9 33 0.6 79 79 SW 3 6 30.14 1021 10 16 0.00 0.00
5:53 am 05:53 Clear 36 2.2 31 -0.6 82 82 Calm 30.15 1021 10 16 0.00 0.00
6:53 am 06:53 Sunny with Mist and Fog 37 2.8 33 0.6 86 86 Calm 30.16 1021 6 10 0.00 0.00
7:53 am 07:53 Sunny 44 6.7 37 2.8 76 76 Calm 30.17 1022 10 16 0.00 0.00
8:53 am 08:53 Sunny 52 11.1 39 3.9 61 61 Calm 30.18 1022 10 16 0.00 0.00
9:53 am 09:53 Sunny 59 15 39 3.9 48 48 VRB 3 6 30.17 1022 10 16 0.00 0.00
10:53 am 10:53 Sunny 64 17.8 38 3.3 38 38 NW 6 9 30.16 1022 10 16 0.00 0.00
11:53 am 11:53 Sunny 68 20 38 3.3 33 33 Calm 30.14 1021 10 16 0.00 0.00
12:53 pm 12:53 Sunny 70 21.1 38 3.3 31 31 VRB 3 6 30.11 1020 10 16 0.00 0.00
1:53 pm 13:53 Sunny 71 21.7 37 2.8 29 29 SE 6 9 30.07 1018 10 16 0.00 0.00
2:53 pm 14:53 Sunny 74 23.3 34 1.1 23 23 N 6 9 30.05 1018 10 16 0.00 0.00
3:53 pm 15:53 Sunny 74 23.3 31 -0.6 20 20 N 7 11 30.05 1018 10 16 0.00 0.00
4:53 pm 16:53 Sunny 72 22.2 30 -1.1 21 21 N 6 9 30.04 1017 10 16 0.00 0.00
5:53 pm 17:53 Clear 69 20.6 29 -1.7 22 22 N 3 6 30.05 1018 10 16 0.00 0.00
6:53 pm 18:53 Clear 62 16.7 32 0 32 32 Calm 30.07 1018 10 16 0.00 0.00
7:53 pm 19:53 Clear 60 15.6 38 3.3 44 44 NE 6 9 30.08 1019 10 16 0.00 0.00
8:53 pm 20:53 Clear 60 15.6 34 1.1 38 38 NE 6 9 30.09 1019 10 16 0.00 0.00
9:53 pm 21:53 Clear 52 11.1 36 2.2 55 55 Calm 30.10 1019 10 16 0.00 0.00
10:53 pm 22:53 Clear 56 13.3 33 0.6 42 42 NE 8 13 30.09 1019 10 16 0.00 0.00
11:53 pm 23:53 Clear 54 12.2 32 0 43 43 NE 6 9 30.09 1019 10 16 0.00 0.00

Powered by AerisWeather